Location: Maiden
(35.5760°N, 81.2120°W)
Time: 03:25:07
(UTC-05:00)

ISS - Visible Passes

Search period start: 29 November 2014 00:00
Search period end: 09 December 2014 00:00
Orbit: 407 x 417 km, 51.6° (Epoch: 29 November)

Date Brightness Start Highest point End Pass type
(mag) Time Alt. Az. Time Alt. Az. Time Alt. Az.
29 Nov -1.8 05:12:47 37° E 05:12:47 37° E 05:15:07 10° ESE visible
29 Nov -1.1 06:46:37 10° W 06:48:14 13° SW 06:49:52 10° SSW visible
30 Nov -2.0 05:58:12 25° WSW 05:58:31 25° SW 06:01:17 10° S visible
01 Dec -0.9 05:10:48 19° SSE 05:10:48 19° SSE 05:11:54 10° SSE visible
04 Dec -0.5 19:15:05 10° SSW 19:15:28 12° SSW 19:15:28 12° SSW visible
05 Dec -1.3 18:26:01 10° SSE 18:27:56 16° SE 18:27:56 16° SE visible
06 Dec -1.8 19:11:01 10° SW 19:13:06 36° SW 19:13:06 36° SW visible
07 Dec -2.9 18:21:00 10° SSW 18:24:11 48° SE 18:25:21 31° E visible
08 Dec -1.5 19:07:43 10° W 19:10:17 28° NW 19:10:17 28° NW visible
